ZL1UTH Weather Reports


time (UTC)temp
C
wind
direction
speed
KPH
gust
KPH
rain 1hr
cm
rain 24hr
cm
rain mn
cm
humidity
%
barometer
mb
20260504004804 18 0 0.0 0.0 0.00 0.00 0.00 53 1043.3
20260504004505 18 0 0.0 0.0 0.00 0.00 0.00 55 1043.3
20260504004203 18 0 0.0 0.0 0.00 0.00 0.00 56 1043.4
20260504003904 18 0 0.0 0.0 0.00 0.00 0.00 56 1043.4
20260504003604 17 0 0.0 0.0 0.00 0.00 0.00 57 1043.3
20260504003304 16 321 0.0 3.2 0.00 0.00 0.00 59 1043.4
20260504003004 16 320 0.0 3.2 0.00 0.00 0.00 59 1043.4
20260504002703 16 320 0.0 3.2 0.00 0.00 0.00 58 1043.4
20260504002403 16 314 0.0 3.2 0.00 0.00 0.00 59 1043.3
20260504002104 16 0 0.0 0.0 0.00 0.00 0.00 59 1043.5
20260504001803 16 248 0.0 1.6 0.00 0.00 0.00 59 1043.6
20260504001504 16 248 0.0 1.6 0.00 0.00 0.00 59 1043.6
20260504000904 16 272 0.0 1.6 0.00 0.00 0.00 59 1043.7
20260504000605 16 200 0.0 3.2 0.00 0.00 0.00 58 1043.7
20260504000006 16 252 0.0 6.4 0.00 0.00 0.00 56 1043.7
20260503235404 18 219 0.0 6.4 0.00 0.00 0.00 53 1043.8
20260503235104 18 215 1.6 6.4 0.00 0.00 0.00 54 1044.0
20260503234804 17 266 1.6 6.4 0.00 0.00 0.00 59 1043.9
20260503234504 17 304 1.6 6.4 0.00 0.00 0.00 59 1044.0
20260503234203 16 317 0.0 6.4 0.00 0.00 0.00 60 1043.9
20260503233603 17 319 3.2 6.4 0.00 0.00 0.00 58 1043.9
20260503233304 18 316 3.2 6.4 0.00 0.00 0.00 57 1044.0
20260503232704 17 331 0.0 4.8 0.00 0.00 0.00 63 1044.0
20260503232104 15 19 0.0 4.8 0.00 0.00 0.00 70 1044.1
20260503231504 15 24 0.0 4.8 0.00 0.00 0.00 70 1044.2
20260503231204 15 9 0.0 4.8 0.00 0.00 0.00 69 1044.1
20260503230905 16 348 3.2 3.2 0.00 0.00 0.00 69 1044.2
20260503230604 16 345 1.6 3.2 0.00 0.00 0.00 70 1044.2
20260503230303 15 1 0.0 3.2 0.00 0.00 0.00 70 1044.3
20260503230004 15 339 0.0 3.2 0.00 0.00 0.00 71 1044.2
20260503225704 15 346 0.0 3.2 0.00 0.00 0.00 71 1044.2
20260503225404 15 340 0.0 3.2 0.00 0.00 0.00 72 1044.3
20260503225104 15 332 0.0 3.2 0.00 0.00 0.00 73 1044.3
20260503224803 14 343 0.0 3.2 0.00 0.00 0.00 75 1044.4
20260503224505 14 358 1.6 3.2 0.00 0.00 0.00 74 1044.3
20260503224206 13 1 0.0 3.2 0.00 0.00 0.00 75 1044.4
20260503223605 13 8 0.0 3.2 0.00 0.00 0.00 76 1044.5
20260503223303 13 23 0.0 3.2 0.00 0.00 0.00 77 1044.6
20260503223004 13 0 0.0 0.0 0.00 0.00 0.00 80 1044.5
20260503222405 13 0 0.0 0.0 0.00 0.00 0.00 80 1044.6
20260503222104 13 0 0.0 0.0 0.00 0.00 0.00 81 1044.7
20260503221803 12 0 0.0 0.0 0.00 0.00 0.00 81 1044.7
20260503221504 12 0 0.0 0.0 0.00 0.00 0.00 83 1044.6
20260503221204 12 0 0.0 0.0 0.00 0.00 0.00 84 1044.6
20260503220905 12 15 0.0 3.2 0.00 0.00 0.00 84 1044.7
20260503220303 12 70 0.0 3.2 0.00 0.00 0.00 88 1044.7
20260503220004 12 142 0.0 1.6 0.00 0.00 0.00 90 1044.8
20260503215404 11 117 0.0 1.6 0.00 0.00 0.00 92 1044.8
20260503215104 11 68 0.0 1.6 0.00 0.00 0.00 93 1044.8
20260503214804 11 1 0.0 1.6 0.00 0.00 0.00 93 1044.8
20260503214504 11 0 0.0 0.0 0.00 0.00 0.00 95 1044.8
20260503214203 11 0 0.0 0.0 0.00 0.00 0.00 95 1044.8
20260503213904 11 0 0.0 0.0 0.00 0.00 0.00 96 1044.8
20260503212703 10 0 0.0 0.0 0.00 0.00 0.00 98 1044.9
20260503212404 10 0 0.0 0.0 0.00 0.00 0.00 99 1044.9
20260503212104 10 0 0.0 0.0 0.00 0.00 0.00 99 1044.9
20260503211804 10 0 0.0 0.0 0.00 0.00 0.00 99 1044.9
20260503211504 10 0 0.0 0.0 0.00 0.00 0.00 99 1044.8
20260503211203 10 45 0.0 3.2 0.00 0.00 0.00 99 1044.8
20260503210904 9 45 0.0 3.2 0.00 0.00 0.00 99 1044.8
20260503210304 9 45 0.0 3.2 0.00 0.00 0.00 99 1044.7
20260503210004 9 0 0.0 0.0 0.00 0.00 0.00 99 1044.6
20260503205705 9 0 0.0 0.0 0.00 0.00 0.00 99 1044.6
20260503205104 8 0 0.0 0.0 0.00 0.00 0.00 99 1044.5
20260503204803 8 0 0.0 0.0 0.00 0.00 0.00 99 1044.5
20260503204504 8 0 0.0 0.0 0.00 0.00 0.00 99 1044.8
20260503204203 8 0 0.0 0.0 0.00 0.00 0.00 99 1044.6
20260503203603 8 45 0.0 3.2 0.00 0.00 0.00 99 1044.6
20260503203304 8 45 0.0 3.2 0.00 0.00 0.00 99 1044.7
20260503203004 8 45 0.0 3.2 0.00 0.00 0.00 99 1044.6
20260503202704 8 8 0.0 3.2 0.00 0.00 0.00 99 1044.5
20260503202404 8 1 0.0 3.2 0.00 0.00 0.00 99 1044.4
20260503202104 8 1 0.0 3.2 0.00 0.00 0.00 99 1044.4
20260503201803 8 0 0.0 0.0 0.00 0.00 0.00 99 1044.4
20260503201206 7 0 0.0 0.0 0.00 0.00 0.00 99 1044.4
20260503200603 7 0 0.0 0.0 0.00 0.00 0.00 97 1044.2
20260503200003 7 0 0.0 0.0 0.00 0.00 0.00 97 1044.2
20260503195704 7 0 0.0 0.0 0.00 0.00 0.00 97 1044.1
20260503195403 7 0 0.0 0.0 0.00 0.00 0.00 97 1044.0
20260503195104 7 0 0.0 0.0 0.00 0.00 0.00 97 1044.0
20260503194804 7 0 0.0 0.0 0.00 0.00 0.00 97 1044.0
20260503194504 7 0 0.0 0.0 0.00 0.00 0.00 97 1043.9
20260503194204 7 0 0.0 0.0 0.00 0.00 0.00 97 1043.8
20260503193904 7 0 0.0 0.0 0.00 0.00 0.00 97 1043.9
20260503193604 7 0 0.0 0.0 0.00 0.00 0.00 97 1044.0
20260503193304 7 0 0.0 0.0 0.00 0.00 0.00 97 1043.9
20260503192704 7 0 0.0 0.0 0.00 0.00 0.00 97 1043.6
20260503192403 7 0 0.0 0.0 0.00 0.00 0.00 97 1043.8
20260503192104 6 0 0.0 0.0 0.00 0.00 0.00 98 1043.9
20260503191804 6 0 0.0 0.0 0.00 0.00 0.00 98 1043.8
20260503191504 6 0 0.0 0.0 0.00 0.00 0.00 98 1043.7
20260503191204 6 0 0.0 0.0 0.00 0.00 0.00 98 1043.8
20260503190604 6 0 0.0 0.0 0.00 0.00 0.00 98 1043.5
20260503190304 6 0 0.0 0.0 0.00 0.00 0.00 98 1043.4
20260503190004 6 0 0.0 0.0 0.00 0.00 0.00 98 1043.6
20260503185704 6 0 0.0 0.0 0.00 0.00 0.00 98 1043.6
20260503185403 6 0 0.0 0.0 0.00 0.00 0.00 98 1043.5
20260503185104 6 0 0.0 0.0 0.00 0.00 0.00 98 1043.5
20260503184803 6 0 0.0 0.0 0.00 0.00 0.00 98 1043.5
20260503184504 6 0 0.0 0.0 0.00 0.00 0.00 98 1043.5
20260503183903 6 0 0.0 0.0 0.00 0.00 0.00 98 1043.3
20260503183604 6 0 0.0 0.0 0.00 0.00 0.00 98 1043.6
20260503183303 6 0 0.0 0.0 0.00 0.00 0.00 98 1043.4
20260503183004 6 0 0.0 0.0 0.00 0.00 0.00 98 1043.3
20260503182704 6 0 0.0 0.0 0.00 0.00 0.00 98 1043.4
20260503182404 6 0 0.0 0.0 0.00 0.00 0.00 98 1043.5
20260503182103 6 0 0.0 0.0 0.00 0.00 0.00 98 1043.4
20260503181804 6 0 0.0 0.0 0.00 0.00 0.00 98 1043.4
20260503181505 6 341 0.0 3.2 0.00 0.00 0.00 98 1043.4
20260503181204 6 348 0.0 3.2 0.00 0.00 0.00 98 1043.4
20260503180903 6 348 0.0 3.2 0.00 0.00 0.00 98 1043.3
20260503180606 6 19 0.0 3.2 0.00 0.00 0.00 98 1043.4
20260503180304 6 0 0.0 0.0 0.00 0.00 0.00 98 1043.4
20260503175703 6 0 0.0 0.0 0.00 0.00 0.00 98 1043.5
20260503175404 6 0 0.0 0.0 0.00 0.00 0.00 98 1043.4
20260503175104 6 0 0.0 0.0 0.00 0.00 0.00 98 1043.5
20260503174504 6 0 0.0 0.0 0.00 0.00 0.00 98 1043.4
20260503173903 6 0 0.0 0.0 0.00 0.00 0.00 98 1043.5
20260503173604 6 0 0.0 0.0 0.00 0.00 0.00 98 1043.4
20260503173004 6 0 0.0 0.0 0.00 0.00 0.00 98 1043.5
20260503172704 6 0 0.0 0.0 0.00 0.00 0.00 98 1043.5
20260503172404 6 0 0.0 0.0 0.00 0.03 0.00 98 1043.7
20260503172103 6 0 0.0 0.0 0.00 0.03 0.00 98 1043.7
20260503171803 6 0 0.0 0.0 0.00 0.03 0.00 98 1043.8
20260503171505 6 0 0.0 0.0 0.00 0.03 0.00 98 1043.8
20260503171206 6 0 0.0 0.0 0.00 0.03 0.00 98 1043.7
20260503170604 6 0 0.0 0.0 0.00 0.03 0.00 98 1043.8
20260503170303 6 0 0.0 0.0 0.00 0.03 0.00 98 1043.8
20260503150905 5 335 0.0 3.2 0.00 0.03 0.00 99 1044.4
20260503150604 5 334 0.0 3.2 0.00 0.03 0.00 99 1044.5
20260503140304 5 22 1.6 3.2 0.00 0.03 0.00 99 1044.9
20260503131204 4 1 0.0 1.6 0.00 0.03 0.00 99 1044.7
20260503130903 4 0 0.0 0.0 0.00 0.03 0.00 99 1044.7
20260503130604 4 0 0.0 0.0 0.00 0.03 0.00 99 1044.6
20260503130303 4 0 0.0 0.0 0.00 0.03 0.00 99 1044.7
20260503110306 5 0 0.0 0.0 0.00 0.03 0.03 99 1044.1
20260503081204 7 0 0.0 0.0 0.00 0.03 0.03 97 1042.6
20260503080904 7 0 0.0 0.0 0.00 0.03 0.03 97 1042.7
20260503080604 7 0 0.0 0.0 0.00 0.03 0.03 97 1042.7
20260503080304 7 0 0.0 0.0 0.00 0.03 0.03 97 1042.6
20260503072704 7 0 0.0 0.0 0.00 0.03 0.03 95 1042.4
20260503072403 7 0 0.0 0.0 0.00 0.03 0.03 95 1042.4
20260503072104 7 0 0.0 0.0 0.00 0.03 0.03 95 1042.3
20260503071803 7 0 0.0 0.0 0.00 0.03 0.03 94 1042.4
20260503071504 7 0 0.0 0.0 0.00 0.03 0.03 94 1042.4
20260503071203 7 0 0.0 0.0 0.00 0.03 0.03 94 1042.5
20260503070904 8 0 0.0 0.0 0.00 0.03 0.03 94 1042.3
20260503070603 8 0 0.0 0.0 0.00 0.03 0.03 94 1042.3
20260503070304 8 0 0.0 0.0 0.00 0.03 0.03 94 1042.3
20260503060304 10 0 0.0 0.0 0.00 0.03 0.03 87 1041.9
20260503055104 11 0 0.0 0.0 0.00 0.03 0.03 84 1041.8
20260503054204 12 0 0.0 0.0 0.00 0.03 0.03 81 1041.9
20260503053905 12 0 0.0 0.0 0.00 0.03 0.03 81 1041.8
20260503053604 12 0 0.0 0.0 0.00 0.03 0.03 80 1041.8
20260503053307 12 0 0.0 0.0 0.00 0.03 0.03 79 1041.7
20260503052704 13 0 0.0 0.0 0.00 0.03 0.03 77 1041.8
20260503052403 13 0 0.0 0.0 0.00 0.03 0.03 76 1041.7
20260503052104 13 0 0.0 0.0 0.00 0.03 0.03 75 1041.7
20260503051504 15 0 0.0 0.0 0.00 0.03 0.03 71 1041.6
20260503051203 15 0 0.0 0.0 0.00 0.03 0.03 71 1041.7
20260503050904 16 0 0.0 0.0 0.00 0.03 0.03 69 1041.7
20260503050604 17 0 0.0 0.0 0.00 0.03 0.03 67 1041.8
20260503050304 17 0 0.0 0.0 0.00 0.03 0.03 66 1041.6
20260503050005 17 0 0.0 0.0 0.00 0.03 0.03 66 1041.6
20260503045703 17 0 0.0 0.0 0.00 0.03 0.03 65 1041.6
20260503045404 18 0 0.0 0.0 0.00 0.03 0.03 65 1041.6
20260503044504 18 0 0.0 0.0 0.00 0.03 0.03 64 1041.5
20260503044204 18 0 0.0 0.0 0.00 0.03 0.03 64 1041.6
20260503043904 18 0 0.0 0.0 0.00 0.03 0.03 63 1041.7
20260503043604 18 0 0.0 0.0 0.00 0.03 0.03 62 1041.7
20260503043303 18 0 0.0 0.0 0.00 0.03 0.03 62 1041.5
20260503043004 17 0 0.0 0.0 0.00 0.03 0.03 62 1041.5
20260503042706 18 0 0.0 0.0 0.00 0.03 0.03 62 1041.9
20260503042403 17 0 0.0 0.0 0.00 0.03 0.03 63 1041.7
20260503042104 17 0 0.0 0.0 0.00 0.03 0.03 62 1041.5
20260503041804 17 0 0.0 0.0 0.00 0.03 0.03 62 1041.6
20260503041507 18 0 0.0 0.0 0.00 0.03 0.03 62 1041.6
20260503041204 18 0 0.0 0.0 0.00 0.03 0.03 62 1041.6
20260503040904 18 0 0.0 0.0 0.00 0.03 0.03 62 1041.6
20260503040604 18 0 0.0 0.0 0.00 0.03 0.03 61 1041.5
20260503040304 18 0 0.0 0.0 0.00 0.03 0.03 61 1041.4
20260503040003 18 0 0.0 0.0 0.00 0.03 0.03 61 1041.5
20260503035704 18 0 0.0 0.0 0.00 0.03 0.03 62 1041.6
20260503035403 18 0 0.0 0.0 0.00 0.03 0.03 62 1041.7
20260503035105 18 135 0.0 1.6 0.00 0.03 0.03 62 1041.6
20260503034804 18 135 0.0 1.6 0.00 0.03 0.03 62 1041.7
20260503034504 18 135 0.0 1.6 0.00 0.03 0.03 62 1041.6
20260503034205 18 135 0.0 1.6 0.00 0.03 0.03 62 1041.7
20260503033603 19 135 0.0 1.6 0.00 0.03 0.03 59 1041.7
20260503033304 19 270 0.0 1.6 0.00 0.03 0.03 59 1041.7
20260503033003 19 270 0.0 1.6 0.00 0.03 0.03 59 1041.6
20260503032704 19 270 0.0 1.6 0.00 0.03 0.03 58 1041.8
20260503032404 19 270 0.0 1.6 0.00 0.03 0.03 57 1041.8
20260503032103 19 0 0.0 0.0 0.00 0.03 0.03 55 1041.8
20260503031504 20 0 0.0 0.0 0.00 0.03 0.03 53 1042.0
20260503031204 21 0 0.0 0.0 0.00 0.03 0.03 54 1042.0
20260503030906 20 0 0.0 0.0 0.00 0.03 0.03 55 1041.9
20260503030603 20 0 0.0 0.0 0.00 0.03 0.03 55 1041.9
20260503030304 20 0 0.0 0.0 0.00 0.03 0.03 55 1041.8
20260503030005 19 0 0.0 0.0 0.00 0.03 0.03 58 1041.9
20260503025706 19 0 0.0 0.0 0.00 0.03 0.03 57 1041.9
20260503025404 19 0 0.0 0.0 0.00 0.03 0.03 55 1042.0
20260503025104 20 0 0.0 0.0 0.00 0.03 0.03 54 1042.1
20260503024804 20 0 0.0 0.0 0.00 0.03 0.03 55 1041.9
20260503024504 20 0 0.0 0.0 0.00 0.03 0.03 56 1042.0
20260503024204 19 0 0.0 0.0 0.00 0.03 0.03 57 1042.0
20260503023904 19 0 0.0 0.0 0.00 0.03 0.03 57 1042.0
20260503023604 19 251 0.0 1.6 0.00 0.03 0.03 57 1042.0
20260503023303 19 251 0.0 1.6 0.00 0.03 0.03 58 1042.0
20260503022704 19 270 0.0 1.6 0.00 0.03 0.03 57 1042.2
20260503022403 19 0 0.0 0.0 0.00 0.03 0.03 57 1042.1
20260503022103 20 0 0.0 0.0 0.00 0.03 0.03 56 1042.2
20260503021504 19 0 0.0 0.0 0.00 0.03 0.03 59 1042.2
20260503021203 18 0 0.0 0.0 0.00 0.03 0.03 58 1042.2
20260503020904 18 0 0.0 0.0 0.00 0.03 0.03 56 1042.1
20260503020304 19 245 0.0 1.6 0.00 0.03 0.03 56 1042.3
20260503020004 19 210 0.0 1.6 0.00 0.03 0.03 58 1042.2
20260503015703 18 188 0.0 1.6 0.00 0.03 0.03 58 1042.1
20260503015404 18 135 0.0 1.6 0.00 0.03 0.03 56 1042.2
20260503015104 18 135 0.0 1.6 0.00 0.03 0.03 55 1042.2
20260503014804 19 0 0.0 0.0 0.00 0.03 0.03 54 1042.2
20260503014504 20 0 0.0 0.0 0.00 0.03 0.03 53 1042.2
20260503014204 21 0 0.0 0.0 0.00 0.03 0.03 51 1042.3
20260503013604 21 0 0.0 0.0 0.00 0.03 0.03 51 1042.5
20260503013306 21 0 0.0 0.0 0.00 0.03 0.03 52 1042.5
20260503013006 20 0 0.0 0.0 0.00 0.03 0.03 55 1042.6
20260503012703 20 0 0.0 0.0 0.00 0.03 0.03 56 1042.5
20260503012405 19 0 0.0 0.0 0.00 0.03 0.03 56 1042.5
20260503012103 18 0 0.0 0.0 0.00 0.03 0.03 56 1042.6
20260503011804 19 0 0.0 0.0 0.00 0.03 0.03 55 1042.6
20260503011504 19 0 0.0 0.0 0.00 0.03 0.03 57 1042.7
20260503010904 18 0 0.0 0.0 0.00 0.03 0.03 58 1042.8
20260503010604 18 181 0.0 1.6 0.00 0.03 0.03 60 1042.7
20260503010303 18 181 0.0 1.6 0.00 0.03 0.03 60 1042.9
20260503010004 17 181 0.0 1.6 0.00 0.03 0.03 60 1042.8
20260503005703 17 154 0.0 1.6 0.00 0.03 0.03 61 1043.1
20260503005404 17 160 0.0 3.2 0.00 0.03 0.03 60 1042.9
20260503005103 17 156 0.0 3.2 0.00 0.03 0.03 61 1043.0